Year,Month,Day,Hour,Minute,Value (Times are PST for temperature in C)
2011,09,25,00,00,16.50
2011,09,25,00,01,16.50
2011,09,25,00,02,16.50
2011,09,25,00,03,16.50
2011,09,25,00,04,16.60
2011,09,25,00,05,16.60
2011,09,25,00,06,16.60
2011,09,25,00,07,16.70
2011,09,25,00,08,16.70
2011,09,25,00,09,16.70
2011,09,25,00,10,16.60
2011,09,25,00,11,16.50
2011,09,25,00,12,16.40
2011,09,25,00,13,16.30
2011,09,25,00,14,16.20
2011,09,25,00,15,16.20
2011,09,25,00,16,16.10
2011,09,25,00,17,16.00
2011,09,25,00,18,15.90
2011,09,25,00,19,15.90
2011,09,25,00,20,15.80
2011,09,25,00,21,15.80
2011,09,25,00,22,15.70
2011,09,25,00,23,15.70
2011,09,25,00,24,15.70
2011,09,25,00,25,15.60
2011,09,25,00,26,15.60
2011,09,25,00,27,15.50
2011,09,25,00,28,15.40
2011,09,25,00,29,15.40
2011,09,25,00,30,15.30
2011,09,25,00,31,15.30
2011,09,25,00,32,15.20
2011,09,25,00,33,15.20
2011,09,25,00,34,15.20
2011,09,25,00,35,15.10
2011,09,25,00,36,15.10
2011,09,25,00,37,15.00
2011,09,25,00,38,15.00
2011,09,25,00,39,15.00
2011,09,25,00,40,15.00
2011,09,25,00,41,15.00
2011,09,25,00,42,15.00
2011,09,25,00,43,15.00
2011,09,25,00,44,15.00
2011,09,25,00,45,15.00
2011,09,25,00,46,15.00
2011,09,25,00,47,15.00
2011,09,25,00,48,15.00
2011,09,25,00,49,15.00
2011,09,25,00,50,15.00
2011,09,25,00,51,15.00
2011,09,25,00,52,15.00
2011,09,25,00,53,15.00
2011,09,25,00,54,15.00
2011,09,25,00,55,15.00
2011,09,25,00,56,15.00
2011,09,25,00,57,15.00
2011,09,25,00,58,15.00
2011,09,25,00,59,15.00
2011,09,25,01,00,15.00
2011,09,25,01,01,15.00
2011,09,25,01,02,15.00
2011,09,25,01,03,15.00
2011,09,25,01,04,15.00
2011,09,25,01,05,15.00
2011,09,25,01,06,15.00
2011,09,25,01,07,15.00
2011,09,25,01,08,14.90
2011,09,25,01,09,14.90
2011,09,25,01,10,14.90
2011,09,25,01,11,14.90
2011,09,25,01,12,14.90
2011,09,25,01,13,14.90
2011,09,25,01,14,14.90
2011,09,25,01,15,14.80
2011,09,25,01,16,14.80
2011,09,25,01,17,14.80
2011,09,25,01,18,14.80
2011,09,25,01,19,14.80
2011,09,25,01,20,14.80
2011,09,25,01,21,14.80
2011,09,25,01,22,14.80
2011,09,25,01,23,14.80
2011,09,25,01,24,14.80
2011,09,25,01,25,14.80
2011,09,25,01,26,14.80
2011,09,25,01,27,14.70
2011,09,25,01,28,14.70
2011,09,25,01,29,14.70
2011,09,25,01,30,14.70
2011,09,25,01,31,14.70
2011,09,25,01,32,14.70
2011,09,25,01,33,14.70
2011,09,25,01,34,14.60
2011,09,25,01,35,14.60
2011,09,25,01,36,14.60
2011,09,25,01,37,14.60
2011,09,25,01,38,14.60
2011,09,25,01,39,14.60
2011,09,25,01,40,14.60
2011,09,25,01,41,14.70
2011,09,25,01,42,14.70
2011,09,25,01,43,14.70
2011,09,25,01,44,14.70
2011,09,25,01,45,14.70
2011,09,25,01,46,14.70
2011,09,25,01,47,14.70
2011,09,25,01,48,14.70
2011,09,25,01,49,14.70
2011,09,25,01,50,14.70
2011,09,25,01,51,14.70
2011,09,25,01,52,14.70
2011,09,25,01,53,14.80
2011,09,25,01,54,14.80
2011,09,25,01,55,14.80
2011,09,25,01,56,14.80
2011,09,25,01,57,14.80
2011,09,25,01,58,14.80
2011,09,25,01,59,14.70
2011,09,25,02,00,14.70
2011,09,25,02,01,14.70
2011,09,25,02,02,14.70
2011,09,25,02,03,14.70
2011,09,25,02,04,14.70
2011,09,25,02,05,14.70
2011,09,25,02,06,14.70
2011,09,25,02,07,14.70
2011,09,25,02,08,14.70
2011,09,25,02,09,14.70
2011,09,25,02,10,14.80
2011,09,25,02,11,14.90
2011,09,25,02,12,15.00
2011,09,25,02,13,15.10
2011,09,25,02,14,15.30
2011,09,25,02,15,15.50
2011,09,25,02,16,15.70
2011,09,25,02,17,15.90
2011,09,25,02,18,16.10
2011,09,25,02,19,16.20
2011,09,25,02,20,16.40
2011,09,25,02,21,16.50
2011,09,25,02,22,16.60
2011,09,25,02,23,16.60
2011,09,25,02,24,16.60
2011,09,25,02,25,16.60
2011,09,25,02,26,16.70
2011,09,25,02,27,16.70
2011,09,25,02,28,16.80
2011,09,25,02,29,16.90
2011,09,25,02,30,17.00
2011,09,25,02,31,17.10
2011,09,25,02,32,17.20
2011,09,25,02,33,17.30
2011,09,25,02,34,17.40
2011,09,25,02,35,17.40
2011,09,25,02,36,17.50
2011,09,25,02,37,17.50
2011,09,25,02,38,17.60
2011,09,25,02,39,17.60
2011,09,25,02,40,17.60
2011,09,25,02,41,17.60
2011,09,25,02,42,17.60
2011,09,25,02,43,17.60
2011,09,25,02,44,17.60
2011,09,25,02,45,17.60
2011,09,25,02,46,17.60
2011,09,25,02,47,17.60
2011,09,25,02,48,17.70
2011,09,25,02,49,17.60
2011,09,25,02,50,17.60
2011,09,25,02,51,17.60
2011,09,25,02,52,17.60
2011,09,25,02,53,17.60
2011,09,25,02,54,17.60
2011,09,25,02,55,17.60
2011,09,25,02,56,17.60
2011,09,25,02,57,17.60
2011,09,25,02,58,17.60
2011,09,25,02,59,17.60
2011,09,25,03,00,17.50
2011,09,25,03,01,17.40
2011,09,25,03,02,17.30
2011,09,25,03,06,17.20
2011,09,25,03,07,17.20
2011,09,25,03,08,17.20
2011,09,25,03,09,17.20
2011,09,25,03,10,17.20
2011,09,25,03,11,17.20
2011,09,25,03,12,17.30
2011,09,25,03,13,17.30
2011,09,25,03,14,17.30
2011,09,25,03,15,17.30
2011,09,25,03,16,17.30
2011,09,25,03,17,17.40
2011,09,25,03,18,17.40
2011,09,25,03,19,17.40
2011,09,25,03,20,17.40
2011,09,25,03,21,17.50
2011,09,25,03,22,17.50
2011,09,25,03,23,17.50
2011,09,25,03,24,17.50
2011,09,25,03,25,17.40
2011,09,25,03,26,17.40
2011,09,25,03,27,17.40
2011,09,25,03,28,17.40
2011,09,25,03,29,17.40
2011,09,25,03,30,17.40
2011,09,25,03,31,17.40
2011,09,25,03,32,17.40
2011,09,25,03,33,17.40
2011,09,25,03,34,17.40
2011,09,25,03,35,17.40
2011,09,25,03,36,17.40
2011,09,25,03,37,17.40
2011,09,25,03,38,17.40
2011,09,25,03,39,17.30
2011,09,25,03,40,17.20
2011,09,25,03,41,17.20
2011,09,25,03,42,17.10
2011,09,25,03,43,17.00
2011,09,25,03,44,16.90
2011,09,25,03,45,16.90
2011,09,25,03,46,16.80
2011,09,25,03,47,16.70
2011,09,25,03,48,16.60
2011,09,25,03,49,16.50
2011,09,25,03,50,16.40
2011,09,25,03,51,16.30
2011,09,25,03,52,16.20
2011,09,25,03,53,16.10
2011,09,25,03,54,16.10
2011,09,25,03,55,16.00
2011,09,25,03,56,16.00
2011,09,25,03,57,15.90
2011,09,25,03,58,15.90
2011,09,25,03,59,15.80
2011,09,25,04,00,15.70
2011,09,25,04,01,15.70
2011,09,25,04,02,15.60
2011,09,25,04,03,15.60
2011,09,25,04,04,15.60
2011,09,25,04,05,15.60
2011,09,25,04,06,15.60
2011,09,25,04,07,15.60
2011,09,25,04,08,15.60
2011,09,25,04,09,15.60
2011,09,25,04,10,15.60
2011,09,25,04,11,15.50
2011,09,25,04,12,15.50
2011,09,25,04,13,15.40
2011,09,25,04,14,15.40
2011,09,25,04,15,15.40
2011,09,25,04,16,15.30
2011,09,25,04,17,15.30
2011,09,25,04,18,15.10
2011,09,25,04,19,15.10
2011,09,25,04,20,15.00
2011,09,25,04,21,15.00
2011,09,25,04,22,15.00
2011,09,25,04,23,15.00
2011,09,25,04,24,15.00
2011,09,25,04,25,14.90
2011,09,25,04,26,14.90
2011,09,25,04,27,14.90
2011,09,25,04,28,14.90
2011,09,25,04,29,14.80
2011,09,25,04,30,14.80
2011,09,25,04,31,14.70
2011,09,25,04,32,14.60
2011,09,25,04,33,14.50
2011,09,25,04,34,14.50
2011,09,25,04,35,14.50
2011,09,25,04,36,14.50
2011,09,25,04,37,14.60
2011,09,25,04,38,14.60
2011,09,25,04,39,14.60
2011,09,25,04,40,14.60
2011,09,25,04,41,14.60
2011,09,25,04,42,14.70
2011,09,25,04,43,14.80
2011,09,25,04,44,14.80
2011,09,25,04,45,14.80
2011,09,25,04,46,14.80
2011,09,25,04,47,14.80
2011,09,25,04,48,14.90
2011,09,25,04,49,14.90
2011,09,25,04,50,14.90
2011,09,25,04,51,15.00
2011,09,25,04,52,14.90
2011,09,25,04,53,14.80
2011,09,25,04,54,14.70
2011,09,25,04,55,14.60
2011,09,25,04,56,14.60
2011,09,25,04,57,14.50
2011,09,25,04,58,14.50
2011,09,25,04,59,14.40
2011,09,25,05,00,14.40
2011,09,25,05,01,14.40
2011,09,25,05,02,14.40
2011,09,25,05,03,14.30
2011,09,25,05,04,14.30
2011,09,25,05,05,14.40
2011,09,25,05,06,14.40
2011,09,25,05,07,14.40
2011,09,25,05,08,14.30
2011,09,25,05,09,14.30
2011,09,25,05,10,14.30
2011,09,25,05,11,14.20
2011,09,25,05,12,14.20
2011,09,25,05,13,14.10
2011,09,25,05,14,14.10
2011,09,25,05,15,14.10
2011,09,25,05,16,14.10
2011,09,25,05,17,14.10
2011,09,25,05,18,14.10
2011,09,25,05,19,14.10
2011,09,25,05,20,14.10
2011,09,25,05,21,14.20
2011,09,25,05,22,14.30
2011,09,25,05,23,14.50
2011,09,25,05,24,14.60
2011,09,25,05,25,14.70
2011,09,25,05,26,14.70
2011,09,25,05,27,14.70
2011,09,25,05,28,14.60
2011,09,25,05,29,14.60
2011,09,25,05,30,14.50
2011,09,25,05,31,14.40
2011,09,25,05,32,14.30
2011,09,25,05,33,14.30
2011,09,25,05,34,14.30
2011,09,25,05,35,14.30
2011,09,25,05,36,14.30
2011,09,25,05,37,14.20
2011,09,25,05,38,14.20
2011,09,25,05,39,14.10
2011,09,25,05,40,14.10
2011,09,25,05,41,14.00
2011,09,25,05,42,14.00
2011,09,25,05,43,13.90
2011,09,25,05,44,13.90
2011,09,25,05,45,13.80
2011,09,25,05,46,13.80
2011,09,25,05,47,13.80
2011,09,25,05,48,13.70
2011,09,25,05,49,13.70
2011,09,25,05,50,13.70
2011,09,25,05,51,13.60
2011,09,25,05,52,13.60
2011,09,25,05,53,13.50
2011,09,25,05,54,13.40
2011,09,25,05,55,13.40
2011,09,25,05,56,13.40
2011,09,25,05,57,13.30
2011,09,25,05,58,13.30
2011,09,25,05,59,13.30
2011,09,25,06,00,13.30
2011,09,25,06,01,13.20
2011,09,25,06,02,13.20
2011,09,25,06,03,13.10
2011,09,25,06,04,13.00
2011,09,25,06,05,13.00
2011,09,25,06,06,12.90
2011,09,25,06,07,12.90
2011,09,25,06,08,12.90
2011,09,25,06,09,12.80
2011,09,25,06,10,12.80
2011,09,25,06,11,12.80
2011,09,25,06,12,12.80
2011,09,25,06,13,12.70
2011,09,25,06,14,12.70
2011,09,25,06,15,12.70
2011,09,25,06,16,12.60
2011,09,25,06,17,12.60
2011,09,25,06,18,12.60
2011,09,25,06,19,12.50
2011,09,25,06,20,12.50
2011,09,25,06,21,12.40
2011,09,25,06,22,12.40
2011,09,25,06,23,12.40
2011,09,25,06,24,12.30
2011,09,25,06,25,12.30
2011,09,25,06,26,12.30
2011,09,25,06,27,12.30
2011,09,25,06,28,12.30
2011,09,25,06,29,12.20
2011,09,25,06,30,12.20
2011,09,25,06,31,12.20
2011,09,25,06,32,12.20
2011,09,25,06,33,12.20
2011,09,25,06,34,12.10
2011,09,25,06,35,12.10
2011,09,25,06,36,12.10
2011,09,25,06,37,12.10
2011,09,25,06,38,12.10
2011,09,25,06,39,12.10
2011,09,25,06,40,12.00
2011,09,25,06,41,12.00
2011,09,25,06,42,12.00
2011,09,25,06,43,12.00
2011,09,25,06,44,11.90
2011,09,25,06,45,11.90
2011,09,25,06,46,11.90
2011,09,25,06,47,11.90
2011,09,25,06,48,11.90
2011,09,25,06,49,11.80
2011,09,25,06,50,11.80
2011,09,25,06,51,11.80
2011,09,25,06,52,11.80
2011,09,25,06,53,11.80
2011,09,25,06,54,11.80
2011,09,25,06,55,11.70
2011,09,25,06,56,11.70
2011,09,25,06,57,11.70
2011,09,25,06,58,11.70
2011,09,25,06,59,11.60
2011,09,25,07,00,11.60
2011,09,25,07,01,11.60
2011,09,25,07,02,11.60
2011,09,25,07,03,11.60
2011,09,25,07,04,11.60
2011,09,25,07,05,11.60
2011,09,25,07,06,11.60
2011,09,25,07,07,11.70
2011,09,25,07,08,11.70
2011,09,25,07,09,11.70
2011,09,25,07,10,11.80
2011,09,25,07,11,11.80
2011,09,25,07,12,11.80
2011,09,25,07,13,11.80
2011,09,25,07,14,11.90
2011,09,25,07,15,11.90
2011,09,25,07,16,12.00
2011,09,25,07,17,12.00
2011,09,25,07,18,12.00
2011,09,25,07,19,12.10
2011,09,25,07,20,12.10
2011,09,25,07,21,12.10
2011,09,25,07,22,12.10
2011,09,25,07,23,12.10
2011,09,25,07,24,12.20
2011,09,25,07,25,12.20
2011,09,25,07,26,12.20
2011,09,25,07,27,12.20
2011,09,25,07,28,12.20
2011,09,25,07,29,12.20
2011,09,25,07,30,12.20
2011,09,25,07,31,12.20
2011,09,25,07,32,12.20
2011,09,25,07,33,12.20
2011,09,25,07,34,12.20
2011,09,25,07,35,12.20
2011,09,25,07,36,12.20
2011,09,25,07,37,12.20
2011,09,25,07,38,12.20
2011,09,25,07,39,12.20
2011,09,25,07,40,12.20
2011,09,25,07,41,12.20
2011,09,25,07,42,12.20
2011,09,25,07,43,12.20
2011,09,25,07,44,12.20
2011,09,25,07,45,12.20
2011,09,25,07,46,12.20
2011,09,25,07,47,12.20
2011,09,25,07,48,12.20
2011,09,25,07,49,12.20
2011,09,25,07,50,12.20
2011,09,25,07,51,12.20
2011,09,25,07,52,12.30
2011,09,25,07,53,12.30
2011,09,25,07,54,12.30
2011,09,25,07,55,12.30
2011,09,25,07,56,12.30
2011,09,25,07,57,12.30
2011,09,25,07,58,12.30
2011,09,25,07,59,12.30
2011,09,25,08,00,12.30
2011,09,25,08,01,12.30
2011,09,25,08,02,12.30
2011,09,25,08,03,12.30
2011,09,25,08,04,12.30
2011,09,25,08,05,12.30
2011,09,25,08,06,12.20
2011,09,25,08,07,12.20
2011,09,25,08,08,12.20
2011,09,25,08,09,12.20
2011,09,25,08,10,12.20
2011,09,25,08,11,12.20
2011,09,25,08,12,12.20
2011,09,25,08,13,12.20
2011,09,25,08,14,12.20
2011,09,25,08,15,12.20
2011,09,25,08,16,12.20
2011,09,25,08,17,12.20
2011,09,25,08,18,12.20
2011,09,25,08,19,12.20
2011,09,25,08,20,12.20
2011,09,25,08,21,12.10
2011,09,25,08,22,12.10
2011,09,25,08,23,12.10
2011,09,25,08,24,12.10
2011,09,25,08,25,12.10
2011,09,25,08,26,12.10
2011,09,25,08,27,12.10
2011,09,25,08,28,12.10
2011,09,25,08,29,12.10
2011,09,25,08,30,12.10
2011,09,25,08,31,12.10
2011,09,25,08,32,12.10
2011,09,25,08,33,12.10
2011,09,25,08,34,12.00
2011,09,25,08,35,12.00
2011,09,25,08,36,12.00
2011,09,25,08,37,12.00
2011,09,25,08,38,12.00
2011,09,25,08,39,12.00
2011,09,25,08,40,12.00
2011,09,25,08,41,12.00
2011,09,25,08,42,12.00
2011,09,25,08,43,12.00
2011,09,25,08,44,12.00
2011,09,25,08,45,12.00
2011,09,25,08,46,12.00
2011,09,25,08,47,12.10
2011,09,25,08,48,12.10
2011,09,25,08,49,12.10
2011,09,25,08,50,12.10
2011,09,25,08,51,12.10
2011,09,25,08,52,12.20
2011,09,25,08,53,12.20
2011,09,25,08,54,12.20
2011,09,25,08,55,12.20
2011,09,25,08,56,12.30
2011,09,25,08,57,12.30
2011,09,25,08,58,12.40
2011,09,25,08,59,12.40
2011,09,25,09,00,12.40
2011,09,25,09,01,12.50
2011,09,25,09,02,12.50
2011,09,25,09,03,12.60
2011,09,25,09,04,12.60
2011,09,25,09,05,12.60
2011,09,25,09,06,12.60
2011,09,25,09,07,12.60
2011,09,25,09,08,12.70
2011,09,25,09,09,12.70
2011,09,25,09,10,12.70
2011,09,25,09,11,12.70
2011,09,25,09,12,12.70
2011,09,25,09,13,12.70
2011,09,25,09,14,12.70
2011,09,25,09,15,12.70
2011,09,25,09,16,12.70
2011,09,25,09,17,12.70
2011,09,25,09,18,12.70
2011,09,25,09,19,12.70
2011,09,25,09,20,12.70
2011,09,25,09,21,12.70
2011,09,25,09,22,12.70
2011,09,25,09,23,12.70
2011,09,25,09,24,12.80
2011,09,25,09,25,12.80
2011,09,25,09,26,12.80
2011,09,25,09,27,12.80
2011,09,25,09,28,12.80
2011,09,25,09,29,12.80
2011,09,25,09,30,12.90
2011,09,25,09,31,12.90
2011,09,25,09,32,12.90
2011,09,25,09,33,12.90
2011,09,25,09,34,13.00
2011,09,25,09,35,13.10
2011,09,25,09,36,13.10
2011,09,25,09,37,13.10
2011,09,25,09,38,13.20
2011,09,25,09,39,13.20
2011,09,25,09,40,13.20
2011,09,25,09,41,13.30
2011,09,25,09,42,13.30
2011,09,25,09,43,13.40
2011,09,25,09,44,13.40
2011,09,25,09,45,13.50
2011,09,25,09,46,13.60
2011,09,25,09,47,13.70
2011,09,25,09,48,13.70
2011,09,25,09,49,13.80
2011,09,25,09,50,13.90
2011,09,25,09,51,13.90
2011,09,25,09,52,14.00
2011,09,25,09,53,14.00
2011,09,25,09,54,14.00
2011,09,25,09,55,14.10
2011,09,25,09,56,14.10
2011,09,25,09,57,14.10
2011,09,25,09,58,14.20
2011,09,25,09,59,14.20
2011,09,25,10,00,14.30
2011,09,25,10,01,14.30
2011,09,25,10,02,14.30
2011,09,25,10,03,14.30
2011,09,25,10,04,14.30
2011,09,25,10,05,14.30
2011,09,25,10,06,14.30
2011,09,25,10,07,14.40
2011,09,25,10,08,14.40
2011,09,25,10,09,14.40
2011,09,25,10,10,14.40
2011,09,25,10,11,14.40
2011,09,25,10,12,14.40
2011,09,25,10,13,14.40
2011,09,25,10,14,14.40
2011,09,25,10,15,14.40
2011,09,25,10,16,14.40
2011,09,25,10,17,14.40
2011,09,25,10,18,14.40
2011,09,25,10,19,14.40
2011,09,25,10,20,14.40
2011,09,25,10,21,14.40
2011,09,25,10,22,14.40
2011,09,25,10,23,14.40
2011,09,25,10,24,14.40
2011,09,25,10,25,14.40
2011,09,25,10,26,14.40
2011,09,25,10,27,14.40
2011,09,25,10,28,14.40
2011,09,25,10,29,14.40
2011,09,25,10,30,14.40
2011,09,25,10,31,14.40
2011,09,25,10,32,14.50
2011,09,25,10,33,14.50
2011,09,25,10,34,14.60
2011,09,25,10,35,14.60
2011,09,25,10,36,14.60
2011,09,25,10,37,14.70
2011,09,25,10,38,14.70
2011,09,25,10,39,14.80
2011,09,25,10,40,14.80
2011,09,25,10,41,14.90
2011,09,25,10,42,15.00
2011,09,25,10,43,15.00
2011,09,25,10,44,15.00
2011,09,25,10,45,15.00
2011,09,25,10,46,15.00
2011,09,25,10,47,15.00
2011,09,25,10,48,15.00
2011,09,25,10,49,15.00
2011,09,25,10,50,15.10
2011,09,25,10,51,15.20
2011,09,25,10,52,15.20
2011,09,25,10,53,15.20
2011,09,25,10,54,15.30
2011,09,25,10,55,15.30
2011,09,25,10,56,15.30
2011,09,25,10,57,15.30
2011,09,25,10,58,15.40
2011,09,25,10,59,15.40
2011,09,25,11,00,15.40
2011,09,25,11,01,15.40
2011,09,25,11,02,15.40
2011,09,25,11,03,15.40
2011,09,25,11,04,15.50
2011,09,25,11,05,15.50
2011,09,25,11,06,15.60
2011,09,25,11,07,15.60
2011,09,25,11,08,15.60
2011,09,25,11,09,15.70
2011,09,25,11,10,15.80
2011,09,25,11,11,15.80
2011,09,25,11,12,15.90
2011,09,25,11,13,15.90
2011,09,25,11,14,16.00
2011,09,25,11,15,16.00
2011,09,25,11,16,16.10
2011,09,25,11,17,16.20
2011,09,25,11,18,16.20
2011,09,25,11,19,16.30
2011,09,25,11,20,16.30
2011,09,25,11,21,16.30
2011,09,25,11,22,16.30
2011,09,25,11,23,16.30
2011,09,25,11,24,16.20
2011,09,25,11,25,16.20
2011,09,25,11,26,16.20
2011,09,25,11,27,16.10
2011,09,25,11,28,16.10
2011,09,25,11,29,16.10
2011,09,25,11,30,16.10
2011,09,25,11,31,16.10
2011,09,25,11,32,16.00
2011,09,25,11,33,16.00
2011,09,25,11,34,16.00
2011,09,25,11,35,16.00
2011,09,25,11,36,16.00
2011,09,25,11,37,15.90
2011,09,25,11,38,15.90
2011,09,25,11,39,15.90
2011,09,25,11,40,15.90
2011,09,25,11,41,16.00
2011,09,25,11,42,16.00
2011,09,25,11,43,16.10
2011,09,25,11,44,16.20
2011,09,25,11,45,16.30
2011,09,25,11,46,16.30
2011,09,25,11,47,16.40
2011,09,25,11,48,16.50
2011,09,25,11,49,16.60
2011,09,25,11,50,16.60
2011,09,25,11,51,16.60
2011,09,25,11,52,16.70
2011,09,25,11,53,16.70
2011,09,25,11,54,16.70
2011,09,25,11,55,16.70
2011,09,25,11,56,16.60
2011,09,25,11,57,16.60
2011,09,25,11,58,16.60
2011,09,25,11,59,16.50
2011,09,25,12,00,16.50
2011,09,25,12,01,16.40
2011,09,25,12,02,16.40
2011,09,25,12,03,16.40
2011,09,25,12,04,16.40
2011,09,25,12,05,16.30
2011,09,25,12,06,16.30
2011,09,25,12,07,16.30
2011,09,25,12,08,16.30
2011,09,25,12,09,16.30
2011,09,25,12,10,16.30
2011,09,25,12,11,16.30
2011,09,25,12,12,16.30
2011,09,25,12,13,16.30
2011,09,25,12,14,16.20
2011,09,25,12,15,16.20
2011,09,25,12,16,16.20
2011,09,25,12,17,16.20
2011,09,25,12,18,16.20
2011,09,25,12,19,16.20
2011,09,25,12,20,16.20
2011,09,25,12,21,16.20
2011,09,25,12,22,16.20
2011,09,25,12,23,16.20
2011,09,25,12,24,16.10
2011,09,25,12,25,16.10
2011,09,25,12,26,16.10
2011,09,25,12,27,16.10
2011,09,25,12,28,16.10
2011,09,25,12,29,16.00
2011,09,25,12,30,16.00
2011,09,25,12,31,16.00
2011,09,25,12,32,15.90
2011,09,25,12,33,15.90
2011,09,25,12,34,15.80
2011,09,25,12,35,15.80
2011,09,25,12,36,15.60
2011,09,25,12,37,15.50
2011,09,25,12,38,15.30
2011,09,25,12,39,15.10
2011,09,25,12,40,15.00
2011,09,25,12,41,15.00
2011,09,25,12,42,14.80
2011,09,25,12,43,14.70
2011,09,25,12,44,14.60
2011,09,25,12,45,14.60
2011,09,25,12,46,14.50
2011,09,25,12,47,14.40
2011,09,25,12,48,14.30
2011,09,25,12,49,14.30
2011,09,25,12,50,14.30
2011,09,25,12,51,14.20
2011,09,25,12,52,14.20
2011,09,25,12,53,14.10
2011,09,25,12,54,14.10
2011,09,25,12,55,14.10
2011,09,25,12,56,14.10
2011,09,25,12,57,14.10
2011,09,25,12,58,14.10
2011,09,25,12,59,14.10
2011,09,25,13,00,14.10
2011,09,25,13,01,14.10
2011,09,25,13,02,14.10
2011,09,25,13,03,14.10
2011,09,25,13,04,14.10
2011,09,25,13,05,14.20
2011,09,25,13,06,14.20
2011,09,25,13,07,14.20
2011,09,25,13,08,14.20
2011,09,25,13,09,14.20
2011,09,25,13,10,14.20
2011,09,25,13,11,14.30
2011,09,25,13,12,14.30
2011,09,25,13,13,14.30
2011,09,25,13,14,14.30
2011,09,25,13,15,14.30
2011,09,25,13,16,14.40
2011,09,25,13,17,14.50
2011,09,25,13,18,14.60
2011,09,25,13,19,14.70
2011,09,25,13,20,14.70
2011,09,25,13,21,14.70
2011,09,25,13,22,14.70
2011,09,25,13,23,14.70
2011,09,25,13,24,14.70
2011,09,25,13,25,14.70
2011,09,25,13,26,14.70
2011,09,25,13,27,14.80
2011,09,25,13,28,14.80
2011,09,25,13,29,14.80
2011,09,25,13,30,14.80
2011,09,25,13,31,14.80
2011,09,25,13,32,14.80
2011,09,25,13,33,14.80
2011,09,25,13,34,14.80
2011,09,25,13,35,14.80
2011,09,25,13,36,14.90
2011,09,25,13,37,14.90
2011,09,25,13,38,14.90
2011,09,25,13,39,14.90
2011,09,25,13,40,14.80
2011,09,25,13,41,14.80
2011,09,25,13,42,14.80
2011,09,25,13,43,14.80
2011,09,25,13,44,14.80
2011,09,25,13,45,14.80
2011,09,25,13,46,14.80
2011,09,25,13,47,14.80
2011,09,25,13,48,14.80
2011,09,25,13,49,14.80
2011,09,25,13,50,14.80
2011,09,25,13,51,14.80
2011,09,25,13,52,14.80
2011,09,25,13,53,14.80
2011,09,25,13,54,14.70
2011,09,25,13,55,14.70
2011,09,25,13,56,14.60
2011,09,25,13,57,14.60
2011,09,25,13,58,14.60
2011,09,25,13,59,14.50
2011,09,25,14,00,14.50
2011,09,25,14,01,14.40
2011,09,25,14,02,14.40
2011,09,25,14,03,14.40
2011,09,25,14,04,14.40
2011,09,25,14,05,14.30
2011,09,25,14,06,14.30
2011,09,25,14,07,14.30
2011,09,25,14,08,14.30
2011,09,25,14,09,14.30
2011,09,25,14,10,14.30
2011,09,25,14,11,14.30
2011,09,25,14,12,14.20
2011,09,25,14,13,14.20
2011,09,25,14,14,14.20
2011,09,25,14,15,14.20
2011,09,25,14,16,14.10
2011,09,25,14,17,14.10
2011,09,25,14,18,14.10
2011,09,25,14,19,14.10
2011,09,25,14,20,14.10
2011,09,25,14,21,14.10
2011,09,25,14,22,14.10
2011,09,25,14,23,14.10
2011,09,25,14,24,14.10
2011,09,25,14,25,14.10
2011,09,25,14,26,14.10
2011,09,25,14,27,14.20
2011,09,25,14,28,14.30
2011,09,25,14,29,14.40
2011,09,25,14,30,14.50
2011,09,25,14,31,14.70
2011,09,25,14,32,14.70
2011,09,25,14,33,14.90
2011,09,25,14,34,15.00
2011,09,25,14,35,15.00
2011,09,25,14,36,15.10
2011,09,25,14,37,15.20
2011,09,25,14,38,15.20
2011,09,25,14,39,15.20
2011,09,25,14,40,15.30
2011,09,25,14,41,15.30
2011,09,25,14,42,15.40
2011,09,25,14,43,15.40
2011,09,25,14,44,15.40
2011,09,25,14,45,15.50
2011,09,25,14,46,15.50
2011,09,25,14,47,15.60
2011,09,25,14,48,15.50
2011,09,25,14,49,15.60
2011,09,25,14,50,15.70
2011,09,25,14,51,15.70
2011,09,25,14,52,15.70
2011,09,25,14,53,15.70
2011,09,25,14,54,15.80
2011,09,25,14,55,15.80
2011,09,25,14,56,15.80
2011,09,25,14,57,15.90
2011,09,25,14,58,15.80
2011,09,25,14,59,15.80
2011,09,25,15,00,15.80
2011,09,25,15,01,15.80
2011,09,25,15,02,15.90
2011,09,25,15,03,15.90
2011,09,25,15,04,15.80
2011,09,25,15,05,15.80
2011,09,25,15,06,15.90
2011,09,25,15,07,15.90
2011,09,25,15,08,15.80
2011,09,25,15,09,15.80
2011,09,25,15,10,15.80
2011,09,25,15,11,15.80
2011,09,25,15,12,15.80
2011,09,25,15,13,15.90
2011,09,25,15,14,15.90
2011,09,25,15,15,15.90
2011,09,25,15,16,16.00
2011,09,25,15,17,16.10
2011,09,25,15,18,16.10
2011,09,25,15,19,16.10
2011,09,25,15,20,16.10
2011,09,25,15,21,16.10
2011,09,25,15,22,16.20
2011,09,25,15,23,16.20
2011,09,25,15,24,16.20
2011,09,25,15,25,16.20
2011,09,25,15,26,16.30
2011,09,25,15,27,16.30
2011,09,25,15,28,16.30
2011,09,25,15,29,16.30
2011,09,25,15,30,16.30
2011,09,25,15,31,16.30
2011,09,25,15,32,16.30
2011,09,25,15,33,16.30
2011,09,25,15,34,16.30
2011,09,25,15,35,16.30
2011,09,25,15,36,16.30
2011,09,25,15,37,16.20
2011,09,25,15,38,16.20
2011,09,25,15,39,16.20
2011,09,25,15,40,16.20
2011,09,25,15,41,16.20
2011,09,25,15,42,16.30
2011,09,25,15,43,16.30
2011,09,25,15,44,16.30
2011,09,25,15,45,16.30
2011,09,25,15,46,16.20
2011,09,25,15,47,16.20
2011,09,25,15,48,16.30
2011,09,25,15,49,16.30
2011,09,25,15,50,16.30
2011,09,25,15,51,16.30
2011,09,25,15,52,16.30
2011,09,25,15,53,16.40
2011,09,25,15,54,16.40
2011,09,25,15,55,16.50
2011,09,25,15,56,16.60
2011,09,25,15,57,16.70
2011,09,25,15,58,16.70
2011,09,25,15,59,16.70
2011,09,25,16,00,16.70
2011,09,25,16,01,16.70
2011,09,25,16,02,16.70
2011,09,25,16,03,16.70
2011,09,25,16,04,16.70
2011,09,25,16,05,16.60
2011,09,25,16,06,16.60
2011,09,25,16,07,16.50
2011,09,25,16,08,16.40
2011,09,25,16,09,16.40
2011,09,25,16,10,16.40
2011,09,25,16,11,16.40
2011,09,25,16,12,16.40
2011,09,25,16,13,16.50
2011,09,25,16,14,16.50
2011,09,25,16,15,16.50
2011,09,25,16,16,16.50
2011,09,25,16,17,16.50
2011,09,25,16,18,16.50
2011,09,25,16,19,16.50
2011,09,25,16,20,16.50
2011,09,25,16,21,16.40
2011,09,25,16,22,16.40
2011,09,25,16,23,16.40
2011,09,25,16,24,16.40
2011,09,25,16,25,16.40
2011,09,25,16,26,16.30
2011,09,25,16,27,16.30
2011,09,25,16,28,16.30
2011,09,25,16,29,16.30
2011,09,25,16,30,16.20
2011,09,25,16,31,16.20
2011,09,25,16,32,16.20
2011,09,25,16,33,16.20
2011,09,25,16,34,16.20
2011,09,25,16,35,16.20
2011,09,25,16,36,16.30
2011,09,25,16,37,16.30
2011,09,25,16,38,16.20
2011,09,25,16,39,16.20
2011,09,25,16,40,16.20
2011,09,25,16,41,16.20
2011,09,25,16,42,16.10
2011,09,25,16,43,16.10
2011,09,25,16,44,16.00
2011,09,25,16,45,16.00
2011,09,25,16,46,15.90
2011,09,25,16,47,15.90
2011,09,25,16,48,15.90
2011,09,25,16,49,15.90
2011,09,25,16,50,15.80
2011,09,25,16,51,15.80
2011,09,25,16,52,15.80
2011,09,25,16,53,15.80
2011,09,25,16,54,15.80
2011,09,25,16,55,15.80
2011,09,25,16,56,15.80
2011,09,25,16,57,15.80
2011,09,25,16,58,15.80
2011,09,25,16,59,15.80
2011,09,25,17,00,15.80
2011,09,25,17,01,15.80
2011,09,25,17,02,15.80
2011,09,25,17,03,15.80
2011,09,25,17,04,15.80
2011,09,25,17,05,15.80
2011,09,25,17,06,15.80
2011,09,25,17,07,15.80
2011,09,25,17,08,15.80
2011,09,25,17,09,15.80
2011,09,25,17,10,15.80
2011,09,25,17,11,15.90
2011,09,25,17,12,15.80
2011,09,25,17,13,15.80
2011,09,25,17,14,15.80
2011,09,25,17,15,15.80
2011,09,25,17,16,15.80
2011,09,25,17,17,15.70
2011,09,25,17,18,15.70
2011,09,25,17,19,15.70
2011,09,25,17,20,15.70
2011,09,25,17,21,15.60
2011,09,25,17,22,15.60